Weather in Solonovka

Russia / Altai Krai     52°00′17″N   84°37′34″E
temp.,
°C
wind,
m/s
gust,
m/s
humid.,
%
clouds,
%
prec.,
mm/h
press.,
hPa
HPBL,
m
6 may, thu
thu601:00+11sse2266100 0.0 101124
04:00+11s2266100 0.0 101021
07:00+12s2166100 0.0 100923
10:00+19s1249100 0.0 1008234
13:00+24w1333100 0.0 1007953
16:00+25w4630100 0.0 10071628
19:00+23ene014398 0.0 100611
22:00+17s335277 0.0 100734
7 may, fri
fri701:00+16s4552100 0.0 100665
04:00+15wsw2355100 0.0 100644
07:00+16sw3553100 0.0 100988
10:00+20w244899 0.0 1010514
13:00+16wnw4670100 0.1 1013830
16:00+12w4892100 3.6 1015603
19:00+14sw367494 4.3 1016553
22:00+10ssw33859 0.0 101952
8 may, sat
sat801:00+9sw228658 0.0 102121
04:00+7sw118668 0.0 102211
07:00+8ssw11806 0.0 102326
10:00+12nw22520 0.0 1022745
13:00+15nw22400 0.0 10211182
16:00+17nnw22360 0.0 10201240
19:00+16nw12400 0.0 10201041
22:00+11s22560 0.0 102118
9 may, sun
sun901:00+9s32630 0.0 102129
04:00+8s32660 0.0 102128
07:00+9s22662 0.0 102140
10:00+17ene23415 0.0 1019875
13:00+19ene343695 0.0 10181565
16:00+20ne453786 0.0 10171468
19:00+18ene3549100 0.0 1017586
22:00+12ese34669 0.0 101750
10 may, mon
mon1001:00+9e34765 0.0 101568
04:00+8e2381100 0.0 101438
07:00+9ene2378100 0.0 1014112
10:00+13ne2366100 0.0 1012351
13:00+17ne4454100 0.0 1010774
16:00+19ne454893 0.0 1008952
19:00+17ne455493 0.0 1007704
22:00+12e227098 0.0 100729